Tracking 25703 objects as of 2-Jul-2022
HD Live streaming from Space Station
objects crossing your sky now

FLOCK 1C 1

Track FLOCK 1C 1 now!
10-day predictions
FLOCK 1C 1 is classified as:


NORAD ID: 40027
Int'l Code: 2014-033T
Perigee: 587.0 km
Apogee: 604.4 km
Inclination: 98.0 °
Period: 96.4 minutes
Semi major axis: 6966 km
RCS: Unknown
Launch date: June 19, 2014
Source: United States (US)
Launch site: Orenburg, Russia (OREN)
aabbcc
Your satellite tracking list
Your tracking list is empty




NASA's NSSDC Master Catalog

Two Line Element Set (TLE):
1 40027U 14033T   22183.40857075  .00002917  00000-0  28591-3 0  9993
2 40027  98.0040 130.9116 0012468  10.9099 349.2388 14.93012733436188
Source of the keplerian elements: AFSPC